Location: Zlin
(49.2333°N, 17.6667°E)
Time: 01:52:37
(UTC+01:00)

ISS - Visible Passes

Search period start: 21 November 2017 00:00
Search period end: 01 December 2017 00:00
Orbit: 402 x 407 km, 51.6° (Epoch: 21 November)

Date Brightness Start Highest point End Pass type
(mag) Time Alt. Az. Time Alt. Az. Time Alt. Az.
28 Nov -1.8 18:16:24 10° SSW 18:17:53 21° SSW 18:17:53 21° SSW visible
29 Nov -2.1 17:24:40 10° S 17:27:09 20° SE 17:27:47 19° SE visible
29 Nov -0.6 19:00:00 10° WSW 19:00:27 13° WSW 19:00:27 13° WSW visible
30 Nov -1.4 16:33:35 10° SSE 16:35:01 12° SE 16:36:25 10° ESE visible
30 Nov -3.0 18:07:42 10° SW 18:10:17 46° SSW 18:10:17 46° SSW visible
